GOMX-1

Last updated on Mon Sep 07 2026 00:03:13 GMT+0000 (Coordinated Universal Time)

1 39430U 13066Q 26249.48350207 .00001182 00000+0 18269-3 0 9997 2 39430 97.6450 84.8232 0128038 175.5821 184.6549 14.69668827681852
UTC large
Height (km)
Speed (km/s)
/
Latitude / Longitude
Inclination (degrees)
Orbital Period (minutes)
Azimuth
Elevation
Range (km)
Doppler Factor

Next 0 passes for location: London (51.5072 / 0.1276)

No passes found over London.
GOMX-1